Orbital Elements at Epoch 2459200.5 (2020-Dec-17.0) TDB
Reference: JPL 20 (heliocentric ecliptic J2000)
Element | Value | Uncertainty (1-sigma) | Units |
e | .09993362693018297 | 5.7124e-08 | |
a | 2.345290582666344 | 9.9004e-09 | au |
q | 2.110917188535294 | 1.3677e-07 | au |
i | .3907988879175234 | 4.4554e-06 | deg |
node | 206.2791551606512 | 0.00075587 | deg |
peri | 289.5651078378099 | 0.00075614 | deg |
M | 328.705936819739 | 2.0554e-05 | deg |
tp | 2459314.538860912049 (2021-Apr-10.03886091) | 7.5074e-05 | TDB |
period | 1311.877901308533 3.59 | 8.3069e-06 2.274e-08 | d yr |
n | .2744157818657649 | 1.7376e-09 | deg/d |
Q | 2.579663976797394 | 1.089e-08 | au |
|
| | Orbit Determination Parameters
Additional Information
|